Wind_Speed
42 42 43 43 44 45 45 45 46 45 44 43 43 42 42 41 40 39 39 39 39 38 37 36 36 36 36 35 35 35 34 35 35 34 34 34 34 35 34 34 35 36 36
43 44 44 45 45 46 46 46 47 47 46 46 45 44 43 43 42 42 42 41 41 41 40 39 39 38 38 38 37 37 37 37 36 36 36 35 35 35 36 36 37 37 37
44 45 45 45 45 46 47 47 47 48 48 47 47 46 46 45 44 44 44 44 44 43 42 41 41 41 40 40 39 39 40 39 39 39 38 38 37 37 37 38 38 39 39
45 45 45 46 47 47 48 48 48 48 48 48 49 48 48 47 47 46 46 46 45 44 43 42 42 43 42 42 42 42 42 42 42 41 40 40 39 39 39 39 40 40 41
45 46 46 47 47 48 49 49 49 49 49 49 50 49 49 49 49 48 48 48 47 46 46 45 45 45 45 45 44 44 44 44 43 43 42 42 42 41 41 41 41 42 43
45 46 46 47 48 49 49 50 50 50 50 50 50 50 50 50 50 50 49 49 49 48 48 47 47 47 47 47 46 46 45 46 45 44 44 44 44 44 44 44 44 44 44
44 45 46 47 48 49 49 50 51 51 51 51 51 50 50 51 50 50 50 50 50 50 49 49 49 49 49 48 48 48 47 47 47 46 45 45 46 46 46 46 46 46 46
44 46 47 48 49 49 49 50 51 50 50 51 51 51 51 51 51 50 51 51 51 51 51 51 50 50 50 49 49 49 49 49 48 48 47 46 47 48 47 47 47 46 46
44 45 47 47 48 48 49 49 49 49 50 50 52 52 52 53 52 51 51 51 51 51 51 51 50 51 50 50 50 50 50 50 50 50 49 48 48 49 49 48 47 47 48
42 43 44 45 46 47 47 47 48 49 50 50 51 52 52 52 53 52 51 51 50 50 50 50 50 51 51 50 51 51 50 50 50 50 50 49 50 50 50 49 49 50 49
41 41 42 42 43 44 45 46 47 47 48 48 49 50 50 50 51 50 49 49 49 48 48 49 50 50 50 49 50 50 50 50 50 50 50 50 51 50 51 50 51 50 50
40 39 38 38 38 40 42 43 44 45 46 47 46 47 47 48 48 47 47 47 47 46 46 47 48 49 48 48 48 48 49 50 50 49 50 50 50 50 51 52 52 50 50
37 37 37 36 37 37 38 39 40 41 42 43 43 43 44 46 46 45 45 46 45 44 45 46 47 47 47 47 47 48 49 50 50 50 50 50 51 52 52 53 52 51 50
34 35 35 36 35 34 35 35 35 37 39 41 42 41 42 43 43 44 45 44 44 43 43 44 45 46 47 48 48 48 49 49 49 50 50 50 51 51 51 52 52 51 50
33 33 33 33 32 33 33 34 35 36 38 38 39 39 40 40 41 42 43 43 45 44 43 43 44 45 46 46 47 47 47 48 48 48 48 49 50 50 51 51 51 51 50
31 31 31 32 31 32 32 33 33 35 35 36 37 38 38 39 40 40 42 43 44 44 43 42 43 43 44 44 45 45 45 45 46 46 46 48 50 49 48 49 50 49 49
29 30 30 31 31 31 31 31 32 34 34 34 35 36 37 36 36 37 39 40 41 41 40 39 41 41 41 42 43 44 44 43 44 44 46 47 48 48 47 47 47 47 47
28 28 29 29 30 30 30 30 31 32 33 33 35 35 34 34 34 35 36 37 37 37 38 38 38 38 39 40 40 41 42 42 43 44 45 46 46 46 44 44 45 45 45
27 27 27 27 28 28 28 29 30 30 31 32 32 31 31 31 30 31 33 35 35 35 36 37 36 36 38 39 38 39 41 41 42 42 42 42 43 42 42 43 44 44 43
26 26 26 26 27 27 27 28 29 29 28 28 28 29 29 28 28 29 30 32 33 34 35 36 36 36 36 36 38 38 38 40 39 39 40 40 41 42 41 41 41 41 41
24 25 26 27 27 26 27 28 28 28 27 26 27 28 28 27 27 28 29 30 31 33 34 34 34 34 34 34 36 37 38 38 38 38 39 39 39 40 40 38 38 39 39
23 24 26 26 26 26 26 27 26 26 25 25 26 27 27 27 28 28 29 30 31 32 32 33 32 31 31 31 32 35 36 36 36 37 37 37 37 37 37 37 37 37 37
24 25 26 25 26 27 26 24 24 23 24 25 25 26 27 27 27 28 29 30 31 31 32 31 32 31 30 30 31 32 34 34 34 34 34 33 34 34 34 35 36 36 35
25 26 25 25 27 27 26 25 24 24 24 24 25 26 27 27 27 28 29 29 30 31 31 31 31 30 30 30 31 32 33 33 31 31 31 31 30 31 31 33 33 33 32
25 25 25 26 26 26 25 24 24 25 24 25 25 26 28 28 28 29 30 30 30 31 31 31 30 29 29 30 31 32 31 30 29 28 28 27 27 27 28 29 30 31 30
26 26 27 27 26 25 24 24 25 25 24 24 25 27 28 28 28 29 30 30 30 30 30 29 29 29 28 29 30 30 29 28 27 26 26 26 26 25 25 26 27 28 28
Wind_Direction
267 266 265 265 265 265 265 264 264 262 263 264 264 265 265 265 264 265 267 268 268 269 269 269 270 271 272 273 274 276 278 279 279 281 283 284 285 286 287 288 289 290 292
268 266 264 264 265 264 264 264 264 262 262 262 263 264 265 264 264 265 266 267 267 268 268 268 268 270 272 272 273 275 277 279 279 281 282 283 284 285 286 287 288 289 291
269 268 266 265 265 265 264 264 264 263 263 262 262 262 263 264 263 264 265 266 266 266 266 267 267 268 270 271 272 273 274 276 277 279 281 282 283 284 286 286 288 289 289
269 269 268 266 265 264 264 264 264 264 263 261 261 262 263 263 263 264 265 266 266 265 266 266 267 268 269 270 271 272 272 274 276 277 279 280 282 283 284 285 287 288 290
270 270 268 267 266 265 264 264 264 264 264 263 262 261 262 262 262 263 265 265 266 267 266 266 266 268 268 269 270 271 272 272 274 275 277 278 280 282 284 284 286 287 288
271 270 268 267 266 265 264 264 264 264 264 263 262 261 261 263 262 263 264 265 266 267 267 267 266 267 268 268 268 269 271 271 272 274 275 277 279 281 282 283 285 287 288
273 271 270 269 268 266 265 265 265 264 264 263 262 261 262 263 263 263 263 264 265 266 267 267 267 267 267 267 267 268 269 270 270 272 273 276 278 280 281 282 284 285 287
275 274 272 272 270 267 267 266 264 264 264 264 262 262 261 262 262 262 263 265 266 266 267 267 267 267 267 267 267 268 269 270 269 270 272 274 277 278 280 281 282 283 286
279 276 274 272 271 268 267 266 265 264 264 263 263 263 263 263 263 262 263 264 265 266 266 267 267 268 267 269 268 268 269 269 268 270 271 273 275 276 278 279 280 282 284
283 279 276 273 271 269 267 265 264 264 265 265 264 264 264 265 265 264 263 264 265 265 266 267 267 268 267 269 269 268 269 269 269 269 271 272 273 275 276 277 278 281 282
284 283 279 276 273 270 268 266 264 265 265 265 265 265 265 266 265 266 265 265 265 266 267 267 268 268 268 268 269 269 270 269 269 270 270 271 272 273 275 275 277 279 281
284 283 281 279 276 273 269 268 266 265 265 266 266 266 265 265 266 266 266 266 266 267 267 268 268 269 267 267 270 271 271 271 271 271 270 270 271 272 274 275 275 277 279
284 282 280 279 278 275 271 270 268 266 265 266 267 268 267 266 266 266 266 267 267 267 267 267 268 268 267 269 271 271 272 272 271 271 271 270 271 271 272 274 274 276 277
285 283 280 278 277 275 274 272 271 269 269 267 267 269 270 267 265 266 267 269 268 267 267 267 267 267 267 269 271 272 272 272 271 271 270 271 272 271 272 273 274 274 276
286 284 282 279 277 276 275 272 272 273 273 271 268 270 271 269 266 267 269 271 271 269 268 269 268 266 267 269 271 272 271 271 271 271 270 271 271 273 272 273 273 274 275
287 284 284 282 280 278 276 275 275 277 278 274 270 271 271 268 268 267 268 271 272 272 272 269 267 267 267 269 272 273 272 271 270 270 271 272 272 274 274 274 274 274 276
287 286 285 284 282 280 279 278 279 279 278 275 274 272 271 270 268 269 270 273 274 274 273 271 269 268 268 270 272 273 274 273 271 271 272 273 274 275 276 275 274 275 275
288 288 288 287 286 283 280 281 281 279 277 277 275 273 272 272 273 271 271 272 274 274 275 274 271 269 270 272 271 272 274 275 275 273 274 274 274 275 275 275 275 276 276
289 289 291 289 288 286 283 284 284 284 279 278 276 275 274 275 276 274 273 273 274 275 276 274 272 271 272 271 271 272 273 277 279 276 274 275 275 275 276 277 276 276 276
291 290 291 291 290 288 287 287 286 286 282 276 276 277 276 275 276 277 277 277 277 276 276 276 273 273 275 274 272 272 274 277 279 278 277 276 276 276 277 277 276 276 277
297 295 294 293 293 291 290 290 288 284 281 277 277 277 276 277 280 280 281 280 281 280 279 277 275 275 275 273 273 274 276 279 280 280 279 277 276 277 279 278 278 277 277
302 302 297 295 293 294 294 291 287 283 280 280 280 278 276 278 280 282 283 282 283 282 281 279 275 276 276 276 276 278 279 280 281 280 280 278 277 279 279 278 278 278 277
302 303 301 299 296 294 294 290 287 284 280 281 281 279 277 279 280 281 282 283 284 283 282 281 278 276 277 278 280 281 283 284 285 285 281 277 276 277 277 278 278 279 277
302 304 302 301 298 296 293 288 285 284 284 282 282 280 279 279 281 282 283 284 284 283 282 281 280 279 279 281 283 284 285 285 286 288 285 281 279 279 277 278 278 277 278
303 303 302 300 300 297 293 290 287 285 286 286 285 282 280 281 282 282 283 284 284 282 282 282 281 279 282 282 284 285 286 286 286 284 285 285 284 282 280 278 278 277 278
303 302 301 301 300 297 292 290 290 288 288 288 287 283 281 282 283 284 284 285 284 283 282 281 279 280 284 285 284 285 285 286 286 286 286 286 286 284 282 281 280 277 274
Height
5763 5764 5764 5765 5766 5767 5768 5769 5770 5772 5774 5775 5777 5778 5780 5781 5783 5783 5784 5785 5786 5787 5787 5788 5788 5788 5789 5789 5789 5788 5788 5787 5786 5785 5785 5784 5783 5782 5780 5779 5777 5775 5774
5753 5753 5753 5754 5755 5756 5757 5758 5759 5761 5763 5765 5767 5768 5770 5771 5773 5774 5775 5776 5776 5777 5778 5779 5779 5780 5780 5780 5780 5780 5780 5779 5778 5778 5777 5776 5775 5774 5773 5771 5769 5768 5766
5741 5741 5742 5743 5744 5744 5745 5746 5748 5750 5752 5754 5756 5758 5759 5761 5762 5763 5764 5765 5766 5767 5768 5769 5770 5770 5771 5771 5771 5771 5771 5771 5770 5770 5769 5768 5767 5766 5765 5763 5761 5760 5758
5731 5730 5730 5731 5732 5733 5734 5735 5736 5738 5740 5742 5744 5746 5748 5749 5751 5752 5753 5754 5755 5756 5757 5758 5759 5760 5761 5762 5762 5762 5762 5761 5761 5761 5760 5759 5759 5757 5756 5755 5753 5751 5749
5719 5719 5718 5719 5719 5720 5721 5723 5724 5725 5727 5729 5731 5733 5736 5737 5739 5740 5742 5743 5744 5745 5746 5747 5748 5749 5750 5751 5751 5752 5752 5752 5751 5751 5751 5750 5749 5748 5747 5746 5744 5742 5740
5707 5706 5706 5706 5706 5707 5708 5709 5711 5712 5714 5716 5718 5720 5723 5725 5726 5728 5729 5731 5732 5733 5734 5735 5736 5737 5738 5739 5740 5741 5741 5741 5741 5741 5741 5740 5739 5738 5737 5736 5734 5733 5730
5695 5694 5693 5693 5693 5694 5695 5696 5697 5699 5701 5702 5704 5707 5710 5712 5713 5715 5716 5718 5719 5720 5722 5723 5723 5724 5726 5727 5728 5728 5729 5729 5730 5730 5730 5729 5729 5727 5726 5725 5724 5722 5720
5682 5680 5680 5679 5679 5680 5681 5682 5683 5685 5686 5688 5690 5693 5696 5699 5700 5702 5703 5704 5706 5707 5708 5709 5710 5711 5712 5713 5715 5715 5716 5717 5717 5717 5718 5718 5717 5716 5715 5714 5713 5711 5709
5669 5667 5665 5665 5664 5665 5666 5667 5669 5671 5673 5675 5675 5677 5680 5684 5687 5689 5690 5691 5692 5693 5694 5695 5696 5696 5698 5700 5701 5702 5703 5703 5704 5705 5705 5705 5705 5704 5703 5702 5701 5699 5698
5657 5654 5652 5650 5650 5651 5652 5653 5655 5657 5658 5660 5661 5663 5665 5667 5670 5674 5677 5678 5678 5679 5680 5681 5682 5683 5684 5685 5687 5688 5688 5690 5691 5691 5692 5692 5692 5692 5690 5689 5688 5687 5686
5645 5642 5639 5637 5636 5637 5638 5639 5641 5643 5644 5645 5647 5649 5651 5653 5655 5657 5661 5664 5665 5666 5667 5668 5668 5669 5670 5671 5673 5673 5674 5676 5676 5677 5678 5678 5678 5678 5677 5676 5676 5675 5673
5634 5630 5628 5626 5625 5624 5625 5627 5628 5630 5630 5632 5633 5635 5637 5639 5642 5644 5647 5650 5652 5653 5654 5655 5655 5656 5658 5659 5659 5660 5661 5662 5662 5663 5664 5664 5664 5664 5664 5663 5663 5662 5661
5623 5620 5618 5616 5615 5614 5615 5616 5617 5618 5618 5619 5621 5622 5624 5626 5629 5631 5634 5636 5639 5641 5642 5643 5643 5644 5645 5646 5647 5647 5647 5648 5648 5649 5649 5650 5650 5650 5651 5650 5649 5649 5648
5613 5611 5608 5607 5606 5606 5606 5606 5607 5608 5608 5608 5610 5611 5612 5615 5617 5620 5621 5623 5626 5629 5631 5632 5631 5632 5632 5633 5633 5633 5633 5634 5634 5634 5635 5635 5636 5636 5636 5636 5636 5635 5635
5604 5602 5600 5599 5598 5598 5598 5598 5598 5598 5598 5599 5600 5601 5602 5604 5606 5608 5610 5611 5614 5616 5619 5620 5619 5620 5619 5620 5620 5620 5620 5620 5620 5621 5621 5622 5622 5622 5622 5622 5622 5622 5621
5596 5594 5593 5591 5590 5590 5589 5589 5589 5589 5589 5590 5590 5592 5593 5594 5596 5598 5599 5601 5602 5603 5605 5607 5607 5607 5607 5608 5608 5608 5608 5607 5608 5608 5608 5608 5608 5608 5608 5608 5608 5608 5608
5590 5588 5586 5584 5583 5582 5581 5581 5581 5581 5581 5582 5582 5583 5584 5585 5586 5588 5589 5590 5591 5591 5593 5596 5596 5596 5597 5597 5597 5597 5596 5595 5595 5595 5595 5595 5595 5595 5595 5595 5595 5595 5595
5584 5582 5579 5578 5576 5575 5574 5574 5573 5573 5574 5574 5575 5575 5576 5577 5578 5579 5580 5581 5581 5581 5582 5584 5586 5586 5587 5586 5587 5587 5586 5585 5584 5584 5583 5583 5583 5582 5582 5582 5582 5582 5582
5579 5577 5574 5572 5570 5569 5568 5567 5567 5566 5566 5567 5567 5568 5569 5569 5570 5571 5571 5572 5572 5573 5573 5574 5576 5576 5577 5576 5576 5576 5576 5575 5574 5573 5572 5571 5571 5571 5570 5570 5570 5570 5570
5574 5572 5569 5567 5565 5563 5562 5561 5560 5560 5560 5560 5561 5561 5562 5562 5563 5563 5564 5564 5564 5564 5564 5565 5565 5567 5567 5566 5566 5566 5566 5565 5564 5562 5561 5560 5560 5559 5559 5558 5559 5559 5559
5569 5567 5565 5562 5559 5557 5556 5555 5554 5554 5554 5554 5555 5555 5555 5555 5556 5556 5556 5556 5556 5556 5556 5556 5556 5557 5557 5556 5556 5556 5556 5555 5554 5552 5551 5550 5549 5549 5548 5547 5547 5547 5548
5565 5562 5560 5557 5555 5552 5551 5549 5548 5548 5548 5548 5549 5549 5549 5549 5549 5549 5548 5548 5548 5547 5547 5547 5548 5548 5548 5547 5547 5546 5545 5545 5545 5543 5541 5540 5539 5539 5538 5538 5537 5538 5538
5561 5558 5555 5552 5550 5547 5545 5544 5543 5543 5543 5543 5543 5543 5543 5543 5542 5542 5541 5541 5540 5539 5539 5539 5539 5539 5539 5539 5538 5537 5536 5535 5534 5532 5531 5531 5529 5529 5529 5528 5528 5528 5529
5556 5554 5551 5548 5546 5543 5540 5539 5538 5538 5537 5537 5537 5536 5536 5536 5535 5534 5534 5534 5533 5533 5532 5531 5531 5531 5530 5529 5528 5528 5527 5526 5525 5522 5521 5521 5520 5520 5519 5519 5519 5520 5520
5552 5549 5546 5543 5541 5538 5536 5534 5533 5532 5532 5531 5530 5530 5529 5529 5528 5527 5527 5527 5526 5525 5523 5523 5522 5522 5521 5520 5519 5519 5518 5517 5516 5515 5513 5513 5512 5512 5512 5512 5511 5511 5511
5546 5544 5541 5538 5536 5533 5531 5529 5527 5526 5526 5525 5524 5523 5522 5521 5521 5520 5519 5518 5517 5516 5515 5515 5514 5514 5513 5512 5511 5510 5509 5508 5508 5507 5506 5506 5505 5504 5505 5505 5504 5503 5503